Location: Clarion
(42.7316°N, 93.7330°W)
Time: 02:17:03
(UTC+00:00)

Cosmos 1607 - Pass Details

Date: 22 April 2026
Orbit: 917 x 985 km, 65.0° (Epoch: 20 May)

Event Time Altitude Azimuth Distance (km) Brightness Sun altitude
Exits shadow 07:43:45 73° 16° (NNE) 977 4.0 -31.3°
Drops below altitude 10° 07:49:22 10° 33° (NNE) 2,672 7.2 -30.8°
Sets 07:51:57 0° 34° (NE) 3,631 8.2 -30.6°
